User: anonymous   Login
Location: Unspecified
(0.0000°N, 0.0000°E)
Time: 07:49:20
(UTC+00:00)
Language:

STARLINK-5260 - Orbit

View from above orbital plane
View from above orbital plane
View from above satellite
View from above satellite

Ground track
Ground track

The orbit is defined by the following mean orbital elements,

1 55275U          26145.37854911 +.00000000 +00000-0 +73892-3 0 00005
2 55275  70.0007 191.2087 0003095 261.7357  98.3451 14.98362877    01
Epoch (UTC): 25 May 2026 09:05:06
Eccentricity: 0.0003095
inclination: 70.0007°
perigee height: 570 km
apogee height: 574 km
right ascension of ascending node: 191.2087°
argument of perigee: 261.7357°
revolutions per day: 14.98362877
mean anomaly at epoch: 98.3451°

The dashed part of the orbit path shows where the satellite is in the earth's shadow,  

DLR